This demonstration page uses our WeatherBlox Daily Observations layout. Learn more.

Left ArrowRight Arrow

39.92423, -83.80882

Hourly Observations for August 16, 2022

Temp ( °F °C ) Dew Point ( °F °C ) Humidity (%) Winds ( mph kmh ) Pressure ( in mb ) Visibility ( mi km ) Precip ( " mm )
12:56 am 00:56 Clear 65 18.3 65 18.3 100 100 N 8 13 30.01 1016 10 16 0.00 0.00
1:56 am 01:56 Clear 64 17.8 N/A N/A N 8 13 29.99 1016 10 16 0.00 0.00
2:56 am 02:56 Clear 61 16.1 N/A N/A N 6 9 29.99 1016 10 16 0.00 0.00
3:56 am 03:56 Clear N/A N/A N/A NNW 6 9 30.05 1018 10 16 0.00 0.00
4:56 am 04:56 Clear N/A N/A N/A N 5 7 30.05 1018 10 16 0.00 0.00
5:56 am 05:56 Clear N/A N/A N/A N 6 9 30.05 1018 10 16 0.00 0.00
6:56 am 06:56 Sunny N/A N/A N/A Calm 30.07 1018 8 13 0.00 0.00
7:56 am 07:56 Sunny 62 16.7 N/A N/A N 3 6 30.02 1017 10 16 0.00 0.00
8:56 am 08:56 Sunny 67 19.4 67 19.4 100 100 NNE 7 11 30.03 1017 10 16 0.00 0.00
9:56 am 09:56 Sunny 71 21.7 64 17.8 79 79 NNE 9 15 30.03 1017 10 16 0.00 0.00
10:56 am 10:56 Mostly Sunny 74 23.3 63 17.2 69 69 NE 14 22 30.02 1017 10 16 0.00 0.00
11:56 am 11:56 Mostly Cloudy 76 24.4 62 16.7 62 62 NE 14 22 30.03 1017 10 16 0.00 0.00
12:56 pm 12:56 Cloudy 75 23.9 63 17.2 66 66 NNE 9 15 30.02 1017 10 16 0.00 0.00
1:56 pm 13:56 Mostly Cloudy 76 24.4 62 16.7 62 62 NNE 12 19 30.01 1016 10 16 0.00 0.00
2:56 pm 14:56 Mostly Cloudy 78 25.6 63 17.2 60 60 NE 12 19 30.01 1016 10 16 0.00 0.00
3:56 pm 15:56 Mostly Cloudy 78 25.6 63 17.2 60 60 NE 14 22 29.96 1015 10 16 0.00 0.00
4:56 pm 16:56 Mostly Cloudy 76 24.4 63 17.2 64 64 ENE 10 17 29.96 1015 10 16 0.00 0.00
5:56 pm 17:56 Mostly Cloudy 76 24.4 63 17.2 64 64 ENE 10 17 29.96 1014 10 16 0.00 0.00
6:56 pm 18:56 Mostly Sunny 73 22.8 62 16.7 68 68 ENE 9 15 29.97 1015 10 16 0.00 0.00
7:56 pm 19:56 Mostly Sunny 71 21.7 63 17.2 76 76 NE 9 15 30.01 1016 10 16 0.00 0.00
8:56 pm 20:56 Clear 67 19.4 65 18.3 93 93 NE 8 13 30.01 1016 10 16 0.00 0.00
9:56 pm 21:56 Clear 65 18.3 65 18.3 100 100 NE 7 11 30.03 1017 10 16 0.00 0.00
10:56 pm 22:56 Clear 63 17.2 N/A N/A NE 6 9 30.04 1017 10 16 0.00 0.00
11:56 pm 23:56 Mostly Cloudy 64 17.8 N/A N/A N 3 6 30.04 1017 10 16 0.00 0.00

Powered by AerisWeather